Retour au catalogue

ONEWEB-0680

ActifCommunicationsPO
NORAD 56716·PAYLOAD·🇬🇧 United Kingdom

Lancé May 20, 2023 depuis Vandenberg Space Force Base

Loading…

Prochains Passages (prochaines 24 heures)

TLE

FraisSource: CelesTrak SupGP

Époque: Sep 14, 2026, 17:28 UTC

1 56716C 23068G   26257.72795556  .00001064  00000+0  25793-2 0  2577
2 56716  87.9283 226.1527 0001833  97.8995 297.9062 13.21824108    17

Suivez ONEWEB-0680 en temps réel avec AllMySat

Download on the App Store